Flag for Romania Weather past 2 weeks in Cluj-Napoca, Romania

Now
46 °F

Clear.


Feels Like: 44 °F
Forecast: 47 / 79 °F
Wind: 5 mph from West

Location: Cluj Airport-Napoca

Current Time: May 30, 2015 at 5:44:47 AM

Latest Report: May 30, 2015 at 5:00 AM


Visibility: 10 mi

Pressure: 30.01 "Hg

Humidity: 93%

Dew point: 45 °F

Location of Cluj-NapocaLocation

Historic Weather in Cluj-Napoca — Graph

°F

Cluj-Napoca temperature yesterday

Maximum temperature yesterday: 64 °F (at 3:30 PM)
Minimum temperature yesterday: 46 °F (at 6:00 AM)
Average temperature yesterday: 57 °F

Past Weeks' High & Low Weather Summary

 TemperatureHumidityPressure
High82 °F (May 20, 4:00 PM)100% (May 15, 4:00 AM)30.18 "Hg (May 15, 4:00 AM)
Low46 °F (May 19, 5:30 AM)37% (May 21, 3:00 PM)29.65 "Hg (May 27, 5:00 AM)
Average61 °F78%29.94 "Hg
* Reported May 15 4:00 AM — May 30 4:00 AM, Cluj-Napoca, Weather by CustomWeather, © 2015

Note: Actual official high and low records may vary slightly from our data, if they occured in-between our weather recording intervals... More about our weather records

Advertising

Cluj-Napoca weather history for previous 24 hours

 ConditionsComfort  
Time TempWeatherWind HumidityBarometerVisibility
4:00 AM
Sat, May 30
46 °FPassing clouds.3 mph100%30.01 "HgN/A
3:00 AM48 °FClear.3 mph94%30.01 "Hg10 mi
2:00 AM50 °FClear.7 mph88%30.01 "Hg10 mi
1:00 AM52 °FClear.7 mph88%30.01 "Hg10 mi
12:00 AM52 °FClear.2 mph88%30.01 "Hg10 mi
11:30 PM
Fri, May 29
54 °FClear.2 mph77%30.01 "Hg10 mi
11:00 PM54 °FClear.2 mph82%30.01 "Hg10 mi
10:30 PM54 °FClear.2 mph82%29.98 "Hg10 mi
10:00 PM57 °FSunny.7 mph72%29.98 "Hg10 mi
9:30 PM57 °FSunny.5 mph72%29.98 "Hg10 mi
9:00 PM59 °FSunny.6 mph68%29.98 "Hg10 mi
8:30 PM61 °FSunny.5 mph63%29.98 "Hg10 mi
8:00 PM63 °FSunny.8 mph56%29.98 "Hg10 mi
7:30 PM64 °FPassing clouds.9 mph49%29.98 "HgN/A
7:00 PM64 °FPassing clouds.9 mph46%29.98 "HgN/A
6:30 PM64 °FSunny.13 mph46%29.98 "Hg10 mi
6:00 PM64 °FSunny.12 mph46%29.98 "Hg10 mi
5:30 PM64 °FPassing clouds.10 mph49%29.98 "HgN/A
5:00 PM64 °FPassing clouds.13 mph49%29.98 "HgN/A
4:30 PM64 °FPassing clouds.14 mph46%29.98 "HgN/A
4:00 PM63 °FScattered clouds.14 mph49%29.98 "HgN/A
3:30 PM64 °FScattered clouds.13 mph46%29.98 "HgN/A
3:00 PM63 °FScattered clouds.10 mph49%30.01 "HgN/A
2:30 PM63 °FScattered clouds.13 mph49%30.01 "HgN/A
2:00 PM63 °FScattered clouds.13 mph49%30.01 "HgN/A
1:30 PM63 °FScattered clouds.13 mph52%30.01 "HgN/A
12:30 PM61 °FScattered clouds.10 mph48%30.01 "HgN/A
12:00 PM61 °FScattered clouds.10 mph48%30.01 "HgN/A
11:30 AM59 °FScattered clouds.12 mph51%30.01 "HgN/A
11:00 AM59 °FScattered clouds.12 mph51%30.01 "HgN/A
10:30 AM57 °FScattered clouds.14 mph51%30.01 "HgN/A
10:00 AM57 °FPassing clouds.12 mph55%30.01 "HgN/A
9:30 AM57 °FSunny.10 mph55%30.01 "Hg10 mi
9:00 AM55 °FSunny.10 mph63%30.01 "Hg10 mi
8:30 AM55 °FSunny.13 mph63%30.01 "Hg10 mi
8:00 AM52 °FSunny.9 mph77%30.01 "Hg10 mi
7:30 AM50 °FSunny.7 mph76%30.01 "Hg10 mi
7:00 AM50 °FCool.1 mph76%30.01 "HgN/A
6:30 AM48 °FClear.6 mph82%30.01 "Hg10 mi
6:00 AM46 °FClear.3 mph93%30.01 "Hg10 mi
5:30 AM50 °FClear.7 mph76%29.98 "Hg10 mi
5:00 AM50 °FPassing clouds.6 mph82%30.01 "HgN/A
Weather by CustomWeather, © 2015

See weather overviewHow to use our weather pages